Hourly Data Report for October 17, 2021

DRYDEN REGIONAL
ONTARIO
Current Station Operator: NAVCAN

49°49'39.000" N
92°44'39.000" W
412.70 m
6032125
71527
YHD

Download Data

Hourly Data (October 2021)
Hourly Data Report for October 17, 2021
TIME
LST
Temp Definition
°C
Dew Point Definition
°C
Rel Hum Definition
%
Precip. Amount Definition
mm

Wind Dir Definition
10's deg

Wind Spd Definition
km/h
Visibility Definition
km
Stn Press Definition
kPa
Hmdx Definition


Wind Chill Definition


Weather Definition


00:00 5.6 1.5 75 0.0 27 17 16.1 96.44     LegendNANA
01:00 4.7 1.4 79 0.0 27 13 16.1 96.49     LegendNANA
02:00 3.9 1.1 82 0.0 25 13 16.1 96.53     LegendNANA
03:00 3.4 1.1 85 0.0 26 15 16.1 96.55     LegendNANA
04:00 3.1 1.1 87 0.0 26 13 16.1 96.60     LegendNANA
05:00 2.8 1.0 88 0.0 25 11 16.1 96.62     LegendNANA
06:00 2.9 1.3 89 0.0 30 8 16.1 96.64     LegendNANA
07:00 2.8 1.3 90 0.0 25 13 16.1 96.66     LegendNANA
08:00 4.3 2.2 86 0.0 27 15 16.1 96.72     LegendNANA
09:00 6.3 2.9 79 0.0 27 11 16.1 96.76     LegendNANA
10:00 9.3 3.7 68 0.0 27 9 16.1 96.80     LegendNANA
11:00 11.4 2.6 55 0.0 28 13 16.1 96.80     LegendNANA
12:00 13.1 1.0 44 0.0 30 9 16.1 96.76     LegendNANA
13:00 14.1 0.6 40 0.0 26 15 16.1 96.71     LegendNANA
14:00 15.1 0.3 36 0.0 31 8 16.1 96.69     LegendNANA
15:00 15.6 0.7 36 0.0 26 11 16.1 96.68     LegendNANA
16:00 15.2 1.1 38 0.0 25 13 16.1 96.66     LegendNANA
17:00 13.2 2.6 48 0.0 22 9 16.1 96.63     LegendNANA
18:00 11.6 2.4 53 0.0 20 11 16.1 96.62     LegendNANA
19:00 10.8 3.8 62 0.0 19 11 16.1 96.62     LegendNANA
20:00 10.4 4.8 68 0.0 17 9 16.1 96.61     LegendNANA
21:00 9.3 4.7 73 0.0 15 11 16.1 96.62     LegendNANA
22:00 8.8 3.9 71 0.0 16 11 16.1 96.61     LegendNANA
23:00 8.7 4.4 74 0.0 16 13 16.1 96.60     LegendNANA

Notes on Data Quality.

Legend

  • E = Estimated
  • M = Missing
  • NA = Not Available*
  • [empty] = Indicates an unobserved value
Date modified: